This is the latest recevied weather packets stored in our database for station/object ac2ev. If no packets are shown the sender has not sent any weather packets the latest 1 day(s).
| Time | Temp. | Humidity | Pressure | Rain* | Wind** | Luminosity | Snow |
|---|---|---|---|---|---|---|---|
| 1778004963 | 21.11° C | 53% | 1003.4 hPa | 0 mm | 4.92 m/s, 234° | - | - |
| 1778004663 | 21.11° C | 55% | 1003.4 hPa | 0 mm | 5.81 m/s, 0° | - | - |
| 1778004363 | 20.56° C | 55% | 1003.4 hPa | 0 mm | 5.36 m/s, 242° | - | - |
| 1778004063 | 20.56° C | 55% | 1003.5 hPa | 0 mm | 4.47 m/s, 235° | - | - |
| 1778003763 | 20.56° C | 56% | 1003.3 hPa | 0 mm | 4.47 m/s, 262° | - | - |
| 1778003463 | 20.56° C | 56% | 1003.4 hPa | 0 mm | 4.47 m/s, 265° | - | - |
| 1778003162 | 20.56° C | 56% | 1003.3 hPa | 0 mm | 4.02 m/s, 241° | - | - |
| 1778002863 | 21.11° C | 56% | 1003.2 hPa | 0 mm | 3.58 m/s, 225° | - | - |
| 1778002562 | 21.67° C | 54% | 1003.3 hPa | 0 mm | 3.13 m/s, 259° | - | - |
| 1778002263 | 21.67° C | 55% | 1003.3 hPa | 0 mm | 2.68 m/s, 269° | - | - |
| 1778001963 | 21.67° C | 55% | 1003.2 hPa | 0 mm | 2.68 m/s, 238° | - | - |
| 1778001662 | 21.67° C | 55% | 1003.3 hPa | 0 mm | 3.58 m/s, 257° | - | - |
| 1778001363 | 21.67° C | 54% | 1003.1 hPa | 0 mm | 3.13 m/s, 251° | - | - |
| 1778001063 | 21.67° C | 56% | 1003 hPa | 0 mm | 2.24 m/s, 255° | - | - |
| 1778000763 | 21.11° C | 56% | 1003 hPa | 0 mm | 1.34 m/s, 232° | - | - |
| 1778000463 | 21.11° C | 57% | 1003 hPa | 0 mm | 1.34 m/s, 216° | - | - |
| 1778000163 | 20.56° C | 59% | 1002.9 hPa | 0 mm | 2.24 m/s, 223° | - | - |
| 1777999862 | 20.56° C | 59% | 1003 hPa | 0 mm | 1.79 m/s, 232° | - | - |
| 1777999562 | 20.56° C | 59% | 1002.9 hPa | 0 mm | 1.79 m/s, 211° | - | - |
| 1777999263 | 20° C | 60% | 1003.1 hPa | 0 mm | 1.79 m/s, 220° | - | - |
| 1777998963 | 20° C | 61% | 1003.2 hPa | 0 mm | 0.89 m/s, 248° | - | - |
| 1777998662 | 19.44° C | 61% | 1003.3 hPa | 0 mm | 0.45 m/s, 243° | - | - |
| 1777998362 | 19.44° C | 62% | 1003.3 hPa | 0 mm | 0.89 m/s, 233° | - | - |
| 1777998062 | 19.44° C | 61% | 1003.3 hPa | 0 mm | 1.34 m/s, 246° | - | - |
| 1777997763 | 19.44° C | 61% | 1003.3 hPa | 0 mm | 1.79 m/s, 234° | - | - |
* Rain latest hour (hover to see other rain measurements)
** Current wind speed in m/s (hover to see current wind gust speed)